Meteo Giornale » Osservazioni meteo Italia » Verona-Villafranca

ore: 05:20 - Osservazioni Meteo Verona-Villafranca
Lat. 45° 23' N Lon. 10° 52' E Alt. 67 metri s.l.m.

nuvoloso_temporali Europe/Rome

20 °C

Temporale con Pioggia

Temp. 24 Ore

19 °C

31 °C

Nord/Nord-Est

20.3 Km/h

Dew point 19 °C

Umidità 93 %

Visibilità  7 Km

Il sole sorge alle ore 06:19

Il sole tramonta alle ore 20:21

Data e Ora Cielo e Fenomeni T °C DP °C Um. % Pres. hPa Vis. km Vento km/h
Oggi h: 05:20 nuvoloso_temporali Temporale con Pioggia 20 19 93 1012 7 N/NE 20.3
Oggi h: 04:50 nuvoloso_temporali Temporale con Pioggia 21 19 88 1014 4 SO 51.8
Oggi h: 04:20 nuvoloso Nuvoloso 20 19 93 1012 10 N 3.7
Oggi h: 03:50 sereno Sereno 19 18 93 1011 10 N 1.8
Oggi h: 03:20 sereno Sereno 19 18 93 1011 10 N 1.8
Oggi h: 02:50 sereno Sereno 20 19 93 1011 10 N 3.7
Oggi h: 02:20 sereno Sereno 21 19 88 1012 10 N 3.7
Oggi h: 01:50 sereno Sereno 21 19 88 1012 10 N 1.8
Oggi h: 01:20 sereno Sereno 21 19 88 1012 10 N 5.5
Oggi h: 00:50 poco_nuvoloso Poco Nuvoloso 21 19 88 1013 10 N 5.5
Oggi h: 00:20 poco_nuvoloso Poco Nuvoloso 21 19 88 1013 10 NO 7.4
Ieri h: 23:50 sereno Sereno 21 18 82 1013 10 N 3.7
Ieri h: 23:20 sereno Sereno 21 19 88 1013 10 N 3.7
Ieri h: 22:50 sereno Sereno 21 19 88 1013 10 N 5.5
Ieri h: 22:20 sereno Sereno 21 19 88 1013 10 N 5.5
Ieri h: 21:50 sereno Sereno 22 19 83 1013 10 N 5.5
Ieri h: 21:20 poco_nuvoloso Poco Nuvoloso 22 19 83 1013 10 E/NE 9.3
Ieri h: 20:50 nuvoloso Nuvoloso 22 20 88 1012 10 E/SE 18.5
Ieri h: 20:20 coperto_pioggia Pioviggine Leggera Rovescio nelle Vicinanze 25 20 73 1012 10 E/SE 22.2
Ieri h: 19:50 nuvoloso_piovaschi Debole Rovescio di Pioggia 27 19 61 1011 10 O 9.3
Ieri h: 19:20 coperto_pioggia Pioviggine Leggera Rovescio nelle Vicinanze 28 18 54 1011 10 O 16.7
Ieri h: 18:50 poco_nuvoloso Poco Nuvoloso 29 19 54 1011 10 O 9.3
Ieri h: 18:20 poco_nuvoloso Poco Nuvoloso 29 19 54 1012 10 O/SO 11.1
Ieri h: 17:50 sereno Sereno 30 18 48 1011 10 N 3.7
Ieri h: 17:20 sereno Sereno 30 19 51 1011 10 O/NO 7.4
Ieri h: 16:50 nuvoloso Nuvoloso 30 19 51 1012 10 N 3.7
Ieri h: 16:20 sereno Sereno 30 19 51 1012 10 N 3.7
Ieri h: 15:50 sereno Sereno 31 18 45 1013 10 N 5.5
Ieri h: 15:20 poco_nuvoloso Poco Nuvoloso 30 19 51 1013 10 N 5.5
Ieri h: 14:50 poco_nuvoloso Poco Nuvoloso 30 19 51 1013 10 N 3.7
Ieri h: 14:20 poco_nuvoloso Poco Nuvoloso 30 19 51 1013 10 S/SE 7.4
Ieri h: 13:50 poco_nuvoloso Poco Nuvoloso 29 18 51 1013 10 N 5.5
Ieri h: 13:20 sereno Sereno 30 17 45 1013 10 N 3.7
Ieri h: 12:50 sereno Sereno 30 17 45 1013 10 N 5.5
Ieri h: 12:20 sereno Sereno 29 16 45 1013 10 SE 7.4
Ieri h: 11:50 sereno Sereno 29 16 45 1013 10 E/SE 7.4
Ieri h: 11:20 sereno Sereno 28 16 48 1013 10 E/SE 7.4
Ieri h: 10:50 sereno Sereno 27 17 54 1013 10 N 9.3
Ieri h: 10:20 sereno Sereno 27 18 57 1013 10 E 7.4
Ieri h: 09:50 sereno Sereno 26 18 61 1013 10 E 7.4
Ieri h: 09:20 sereno Sereno 25 18 65 1013 10 N 3.7
Ieri h: 08:50 nuvoloso Nuvoloso 24 18 69 1013 10 N 3.7
Ieri h: 08:20 sereno Sereno 24 18 69 1013 10 N 1.8
Ieri h: 07:50 sereno Sereno 23 18 73 1013 10 N 1.8
Ieri h: 07:20 sereno Sereno 21 18 82 1012 10 N 3.7
Ieri h: 06:50 sereno Sereno 19 18 93 1012 10 N 1.8
Ieri h: 06:20 sereno Sereno 20 18 88 1012 10 N 5.5